status,avgMeasuredTime,avgSpeed,extID,medianMeasuredTime,TIMESTAMP,vehicleCount,_id,REPORT_ID
OK,117,41,909,117,2014-08-01T08:00:00,3,20746964,201237
OK,118,40,909,118,2014-08-01T08:05:00,2,20747413,201237
OK,106,45,909,106,2014-08-01T08:10:00,2,20747786,201237
OK,106,45,909,106,2014-08-01T08:15:00,2,20748235,201237
OK,130,36,909,130,2014-08-01T08:20:00,1,20748684,201237
OK,130,36,909,130,2014-08-01T08:25:00,1,20749133,201237
OK,130,36,909,130,2014-08-01T08:30:00,0,20749582,201237
OK,130,36,909,130,2014-08-01T08:35:00,0,20750031,201237
OK,130,36,909,130,2014-08-01T08:40:00,0,20750480,201237
OK,150,31,909,150,2014-08-01T08:45:00,1,20750929,201237
OK,137,35,909,137,2014-08-01T08:50:00,2,20751378,201237
OK,124,38,909,124,2014-08-01T08:55:00,3,20751827,201237
OK,131,36,909,131,2014-08-01T09:00:00,3,20752276,201237
OK,138,34,909,138,2014-08-01T09:05:00,4,20752725,201237
OK,145,33,909,145,2014-08-01T09:10:00,3,20753174,201237
OK,128,37,909,128,2014-08-01T09:20:00,5,20754072,201237
OK,114,42,909,114,2014-08-01T09:25:00,2,20754521,201237
OK,105,45,909,105,2014-08-01T09:30:00,3,20754970,201237
OK,110,43,909,110,2014-08-01T09:35:00,2,20755419,201237
OK,127,37,909,127,2014-08-01T09:40:00,2,20755868,201237
OK,127,37,909,127,2014-08-01T09:45:00,3,20756317,201237
OK,116,41,909,116,2014-08-01T09:50:00,1,20756766,201237
OK,115,41,909,115,2014-08-01T09:55:00,1,20757215,201237
OK,118,40,909,118,2014-08-01T10:00:00,1,20757664,201237
OK,118,40,909,118,2014-08-01T10:05:00,0,20758113,201237
OK,142,33,909,142,2014-08-01T10:10:00,1,20758562,201237
OK,110,43,909,110,2014-08-01T10:15:00,1,20759011,201237
OK,110,43,909,110,2014-08-01T10:20:00,1,20759460,201237
OK,107,44,909,107,2014-08-01T10:25:00,2,20759909,201237
OK,107,44,909,107,2014-08-01T10:30:00,2,20760358,201237
OK,145,33,909,145,2014-08-01T10:35:00,1,20760807,201237
OK,143,33,909,143,2014-08-01T10:40:00,4,20761256,201237
OK,118,40,909,118,2014-08-01T10:45:00,4,20761705,201237
OK,101,47,909,101,2014-08-01T10:50:00,2,20762154,201237
OK,117,41,909,117,2014-08-01T10:55:00,3,20762603,201237
OK,118,40,909,118,2014-08-01T11:00:00,2,20763052,201237
OK,120,39,909,120,2014-08-01T11:05:00,2,20763501,201237
OK,119,40,909,119,2014-08-01T11:10:00,3,20763950,201237
OK,116,41,909,116,2014-08-01T11:15:00,4,20764398,201237
OK,113,42,909,113,2014-08-01T11:20:00,3,20764847,201237
OK,100,47,909,100,2014-08-01T11:25:00,5,20765296,201237
OK,120,39,909,120,2014-08-01T11:30:00,3,20765745,201237
OK,124,38,909,124,2014-08-01T11:35:00,2,20766194,201237
OK,125,38,909,125,2014-08-01T11:40:00,3,20766643,201237
OK,133,36,909,133,2014-08-01T11:45:00,2,20767092,201237
OK,137,35,909,137,2014-08-01T11:50:00,3,20767541,201237
OK,121,39,909,121,2014-08-01T11:55:00,4,20767990,201237
OK,127,37,909,127,2014-08-01T12:00:00,4,20768439,201237
OK,138,34,909,138,2014-08-01T12:05:00,6,20768888,201237
OK,130,36,909,130,2014-08-01T12:10:00,7,20769337,201237
OK,103,46,909,103,2014-08-01T12:15:00,2,20769786,201237
OK,110,43,909,110,2014-08-01T12:20:00,0,20770235,201237
OK,111,43,909,111,2014-08-01T12:25:00,4,20770684,201237
OK,126,38,909,126,2014-08-01T12:30:00,7,20771133,201237
OK,127,37,909,127,2014-08-01T12:35:00,4,20771582,201237
OK,113,42,909,113,2014-08-01T12:40:00,2,20772031,201237
OK,117,41,909,117,2014-08-01T12:45:00,4,20772480,201237
OK,118,40,909,118,2014-08-01T12:50:00,3,20772929,201237
OK,117,41,909,117,2014-08-01T12:55:00,0,20773378,201237
OK,92,52,909,92,2014-08-01T13:00:00,3,20773827,201237
OK,92,52,909,92,2014-08-01T13:05:00,3,20774276,201237
OK,149,32,909,149,2014-08-01T13:10:00,3,20774725,201237
OK,142,33,909,142,2014-08-01T13:15:00,4,20775174,201237
OK,107,44,909,107,2014-08-01T13:20:00,4,20775623,201237
OK,115,41,909,115,2014-08-01T13:25:00,5,20776072,201237
OK,122,39,909,122,2014-08-01T13:30:00,4,20776521,201237
OK,114,42,909,114,2014-08-01T13:35:00,4,20776970,201237
OK,114,42,909,114,2014-08-01T13:40:00,2,20777419,201237
OK,126,38,909,126,2014-08-01T13:45:00,1,20777868,201237
OK,125,38,909,125,2014-08-01T13:50:00,2,20778317,201237
OK,106,45,909,106,2014-08-01T14:00:00,4,20779215,201237
OK,106,45,909,106,2014-08-01T14:05:00,4,20779664,201237
OK,122,39,909,122,2014-08-01T14:10:00,0,20780113,201237
OK,146,32,909,146,2014-08-01T14:15:00,2,20780562,201237
OK,124,38,909,124,2014-08-01T14:20:00,4,20781011,201237
OK,113,42,909,113,2014-08-01T14:25:00,5,20781460,201237
OK,110,43,909,110,2014-08-01T14:30:00,2,20781909,201237
OK,131,36,909,131,2014-08-01T14:35:00,1,20782358,201237
OK,131,36,909,131,2014-08-01T14:40:00,1,20782807,201237
OK,131,36,909,131,2014-08-01T14:45:00,0,20783256,201237
OK,99,48,909,99,2014-08-01T14:50:00,1,20783705,201237
OK,107,44,909,107,2014-08-01T14:55:00,3,20784154,201237
OK,130,36,909,130,2014-08-01T15:00:00,3,20784603,201237
OK,149,32,909,149,2014-08-01T15:05:00,3,20785052,201237
OK,154,31,909,154,2014-08-01T15:10:00,2,20785501,201237
OK,112,42,909,112,2014-08-01T15:15:00,2,20785950,201237
OK,115,41,909,115,2014-08-01T15:20:00,2,20786399,201237
OK,104,46,909,104,2014-08-01T15:25:00,2,20786848,201237
OK,106,45,909,106,2014-08-01T15:30:00,3,20787297,201237
OK,108,44,909,108,2014-08-01T15:35:00,1,20787746,201237
OK,83,57,909,83,2014-08-01T15:40:00,2,20788195,201237
OK,89,53,909,89,2014-08-01T15:45:00,5,20788644,201237
OK,98,48,909,98,2014-08-01T15:50:00,2,20789093,201237
OK,107,44,909,107,2014-08-01T15:55:00,0,20789542,201237
OK,210,22,909,210,2014-08-01T16:00:00,1,20789991,201237
OK,210,22,909,210,2014-08-01T16:05:00,1,20790440,201237
OK,210,22,909,210,2014-08-01T16:10:00,0,20790889,201237
OK,136,35,909,136,2014-08-01T16:15:00,1,20791338,201237
OK,105,45,909,105,2014-08-01T16:20:00,1,20791787,201237
OK,105,45,909,105,2014-08-01T16:25:00,1,20792236,201237
OK,105,45,909,105,2014-08-01T16:30:00,0,20792685,201237
OK,105,45,909,105,2014-08-01T16:35:00,0,20793134,201237
OK,139,34,909,139,2014-08-01T16:40:00,1,20793583,201237
OK,139,34,909,139,2014-08-01T16:45:00,1,20794032,201237
OK,139,34,909,139,2014-08-01T16:50:00,0,20794481,201237
OK,139,34,909,139,2014-08-01T16:55:00,0,20794930,201237
OK,139,34,909,139,2014-08-01T17:00:00,0,20795379,201237
OK,139,34,909,139,2014-08-01T17:05:00,0,20795828,201237
OK,135,35,909,135,2014-08-01T17:10:00,1,20796277,201237
OK,125,38,909,125,2014-08-01T17:15:00,2,20796726,201237
OK,117,41,909,117,2014-08-01T17:20:00,2,20797175,201237
OK,119,40,909,119,2014-08-01T17:25:00,0,20797624,201237
OK,119,40,909,119,2014-08-01T17:30:00,0,20798073,201237
OK,119,40,909,119,2014-08-01T17:35:00,0,20798522,201237
OK,119,40,909,119,2014-08-01T17:40:00,0,20798971,201237
OK,119,40,909,119,2014-08-01T17:45:00,0,20799420,201237
OK,114,42,909,114,2014-08-01T17:50:00,1,20799869,201237
OK,111,43,909,111,2014-08-01T17:55:00,2,20800318,201237
OK,108,44,909,108,2014-08-01T18:00:00,1,20800767,201237
OK,108,44,909,108,2014-08-01T18:05:00,0,20801216,201237
OK,108,44,909,108,2014-08-01T18:10:00,0,20801665,201237
OK,108,44,909,108,2014-08-01T18:15:00,0,20802114,201237
OK,97,49,909,97,2014-08-01T18:20:00,1,20802563,201237
OK,97,49,909,97,2014-08-01T18:25:00,1,20803012,201237
OK,124,38,909,124,2014-08-01T18:30:00,1,20803461,201237
OK,124,38,909,124,2014-08-01T18:35:00,1,20803910,201237
OK,92,52,909,92,2014-08-01T18:40:00,1,20804359,201237
OK,99,48,909,99,2014-08-01T18:45:00,2,20804808,201237
OK,106,45,909,106,2014-08-01T18:50:00,1,20805257,201237
OK,106,45,909,106,2014-08-01T18:55:00,0,20805706,201237
OK,119,40,909,119,2014-08-01T19:00:00,2,20806155,201237
OK,119,40,909,119,2014-08-01T19:05:00,2,20806604,201237
OK,119,40,909,119,2014-08-01T19:10:00,0,20807053,201237
OK,119,40,909,119,2014-08-01T19:15:00,0,20807502,201237
OK,125,38,909,125,2014-08-01T19:20:00,1,20807951,201237
OK,125,38,909,125,2014-08-01T19:25:00,1,20808400,201237
OK,125,38,909,125,2014-08-01T19:30:00,0,20808849,201237
OK,103,46,909,103,2014-08-01T19:35:00,0,20809298,201237
OK,80,59,909,80,2014-08-01T19:40:00,2,20809747,201237
OK,62,77,909,62,2014-08-01T19:45:00,1,20810196,201237
OK,62,77,909,62,2014-08-01T19:50:00,0,20810645,201237
OK,62,77,909,62,2014-08-01T19:55:00,0,20811094,201237
OK,62,77,909,62,2014-08-01T22:00:00,0,20816823,201237
OK,62,77,909,62,2014-08-01T22:05:00,0,20817272,201237
OK,113,42,909,113,2014-08-02T00:00:00,0,20823262,201237
OK,113,42,909,113,2014-08-02T00:05:00,0,20823711,201237
OK,113,42,909,113,2014-08-02T00:10:00,0,20824160,201237
OK,113,42,909,113,2014-08-02T00:15:00,0,20824609,201237
OK,113,42,909,113,2014-08-02T00:20:00,0,20825058,201237
OK,113,42,909,113,2014-08-02T00:25:00,0,20825507,201237
OK,113,42,909,113,2014-08-02T00:30:00,0,20825956,201237
OK,113,42,909,113,2014-08-02T00:35:00,0,20826405,201237
OK,113,42,909,113,2014-08-02T00:40:00,0,20826854,201237
OK,113,42,909,113,2014-08-02T00:45:00,0,20827303,201237
OK,113,42,909,113,2014-08-02T00:50:00,0,20827752,201237
OK,113,42,909,113,2014-08-02T00:55:00,0,20828201,201237
OK,113,42,909,113,2014-08-02T01:00:00,0,20828650,201237
OK,113,42,909,113,2014-08-02T01:05:00,0,20829099,201237
OK,113,42,909,113,2014-08-02T01:10:00,0,20829548,201237
OK,113,42,909,113,2014-08-02T01:15:00,0,20829997,201237
OK,113,42,909,113,2014-08-02T01:20:00,0,20830446,201237
OK,113,42,909,113,2014-08-02T01:25:00,0,20830895,201237
OK,113,42,909,113,2014-08-02T01:30:00,0,20831344,201237
OK,113,42,909,113,2014-08-02T01:35:00,0,20831793,201237
OK,113,42,909,113,2014-08-02T01:40:00,0,20832242,201237
OK,113,42,909,113,2014-08-02T01:45:00,0,20832691,201237
OK,113,42,909,113,2014-08-02T01:50:00,0,20833140,201237
OK,113,42,909,113,2014-08-02T01:55:00,0,20833589,201237
OK,113,42,909,113,2014-08-02T02:00:00,0,20834038,201237
OK,113,42,909,113,2014-08-02T02:05:00,0,20834487,201237
OK,113,42,909,113,2014-08-02T02:10:00,0,20834936,201237
OK,113,42,909,113,2014-08-02T02:15:00,0,20835385,201237
OK,113,42,909,113,2014-08-02T02:20:00,0,20835834,201237
OK,113,42,909,113,2014-08-02T02:25:00,0,20836283,201237
OK,113,42,909,113,2014-08-02T02:30:00,0,20836732,201237
OK,113,42,909,113,2014-08-02T02:35:00,0,20837181,201237
OK,113,42,909,113,2014-08-02T02:40:00,0,20837630,201237
OK,113,42,909,113,2014-08-02T02:45:00,0,20838079,201237
OK,113,42,909,113,2014-08-02T02:50:00,0,20838528,201237
OK,113,42,909,113,2014-08-02T02:55:00,0,20838977,201237
OK,113,42,909,113,2014-08-02T03:00:00,0,20839426,201237
OK,113,42,909,113,2014-08-02T03:05:00,0,20839875,201237
OK,113,42,909,113,2014-08-02T03:10:00,0,20840324,201237
OK,113,42,909,113,2014-08-02T03:15:00,0,20840773,201237
OK,113,42,909,113,2014-08-02T03:20:00,0,20841222,201237
OK,113,42,909,113,2014-08-02T03:25:00,0,20841671,201237
OK,113,42,909,113,2014-08-02T03:30:00,0,20842120,201237
OK,113,42,909,113,2014-08-02T03:35:00,0,20842569,201237
OK,113,42,909,113,2014-08-02T03:40:00,0,20843018,201237
OK,113,42,909,113,2014-08-02T03:45:00,0,20843467,201237
OK,113,42,909,113,2014-08-02T03:50:00,0,20843916,201237
OK,113,42,909,113,2014-08-02T03:55:00,0,20844365,201237
OK,78,61,909,78,2014-08-02T06:00:00,1,20851819,201237
OK,89,53,909,89,2014-08-02T06:05:00,1,20852268,201237
OK,105,45,909,105,2014-08-02T06:10:00,2,20852717,201237
OK,121,39,909,121,2014-08-02T06:15:00,3,20853166,201237
OK,122,39,909,122,2014-08-02T06:20:00,2,20853615,201237
OK,127,37,909,127,2014-08-02T06:25:00,0,20854064,201237
OK,101,47,909,101,2014-08-02T06:30:00,2,20854513,201237
OK,101,47,909,101,2014-08-02T06:35:00,2,20854962,201237
OK,125,38,909,125,2014-08-02T06:40:00,2,20855411,201237
OK,125,38,909,125,2014-08-02T06:45:00,3,20855860,201237
OK,115,41,909,115,2014-08-02T06:50:00,2,20856309,201237
OK,148,32,909,148,2014-08-02T06:55:00,2,20856758,201237
OK,193,24,909,193,2014-08-02T07:00:00,0,20857207,201237
OK,193,24,909,193,2014-08-02T07:05:00,0,20857656,201237
OK,91,52,909,91,2014-08-02T07:10:00,1,20858105,201237
OK,91,52,909,91,2014-08-02T07:15:00,0,20858554,201237
OK,111,43,909,111,2014-08-02T07:20:00,3,20859003,201237
OK,111,43,909,111,2014-08-02T07:25:00,3,20859452,201237
OK,92,52,909,92,2014-08-02T07:30:00,1,20859901,201237
OK,104,46,909,104,2014-08-02T07:35:00,2,20860350,201237
OK,103,46,909,103,2014-08-02T07:40:00,2,20860799,201237
OK,125,38,909,125,2014-08-02T07:45:00,3,20861248,201237
OK,137,35,909,137,2014-08-02T07:50:00,2,20861697,201237
OK,105,45,909,105,2014-08-02T07:55:00,1,20862146,201237
OK,105,45,909,105,2014-08-02T08:00:00,0,20862595,201237
OK,105,45,909,105,2014-08-02T08:05:00,0,20863044,201237
OK,105,45,909,105,2014-08-02T08:10:00,0,20863493,201237
OK,111,43,909,111,2014-08-02T08:15:00,1,20863942,201237
OK,111,43,909,111,2014-08-02T08:20:00,0,20864391,201237
OK,128,37,909,128,2014-08-02T08:25:00,1,20864840,201237
OK,131,36,909,131,2014-08-02T08:30:00,4,20865289,201237
OK,135,35,909,135,2014-08-02T08:35:00,4,20865738,201237
OK,125,38,909,125,2014-08-02T08:40:00,4,20866187,201237
OK,119,40,909,119,2014-08-02T08:45:00,2,20866636,201237
OK,97,49,909,97,2014-08-02T08:50:00,1,20867085,201237
OK,105,45,909,105,2014-08-02T08:55:00,3,20867534,201237
OK,108,44,909,108,2014-08-02T09:00:00,3,20867983,201237
OK,145,33,909,145,2014-08-02T09:05:00,4,20868432,201237
OK,137,35,909,137,2014-08-02T09:10:00,5,20868881,201237
OK,121,39,909,121,2014-08-02T09:15:00,2,20869330,201237
OK,111,43,909,111,2014-08-02T09:20:00,3,20869779,201237
OK,121,39,909,121,2014-08-02T09:25:00,1,20870228,201237
OK,135,35,909,135,2014-08-02T09:30:00,1,20870677,201237
OK,126,38,909,126,2014-08-02T09:35:00,3,20871126,201237
OK,115,41,909,115,2014-08-02T09:40:00,3,20871575,201237
OK,111,43,909,111,2014-08-02T09:45:00,1,20872024,201237
OK,130,36,909,130,2014-08-02T09:50:00,1,20872473,201237
OK,130,36,909,130,2014-08-02T09:55:00,3,20872922,201237
OK,165,29,909,165,2014-08-02T10:00:00,3,20873371,201237
OK,133,36,909,133,2014-08-02T10:05:00,3,20873820,201237
OK,130,36,909,130,2014-08-02T10:10:00,2,20874269,201237
OK,128,37,909,128,2014-08-02T10:15:00,0,20874718,201237
OK,90,53,909,90,2014-08-02T10:20:00,1,20875167,201237
OK,120,39,909,120,2014-08-02T10:25:00,3,20875616,201237
OK,121,39,909,121,2014-08-02T10:30:00,4,20876065,201237
OK,121,39,909,121,2014-08-02T10:35:00,2,20876514,201237
OK,112,42,909,112,2014-08-02T10:40:00,0,20876963,201237
OK,103,46,909,103,2014-08-02T10:45:00,1,20877412,201237
OK,103,46,909,103,2014-08-02T10:50:00,1,20877861,201237
OK,103,46,909,103,2014-08-02T10:55:00,0,20878310,201237
OK,103,46,909,103,2014-08-02T11:00:00,0,20878759,201237
OK,114,42,909,114,2014-08-02T11:05:00,1,20879208,201237
OK,108,44,909,108,2014-08-02T11:10:00,2,20879657,201237
OK,114,42,909,114,2014-08-02T11:15:00,5,20880106,201237
OK,117,41,909,117,2014-08-02T11:20:00,5,20880555,201237
OK,120,39,909,120,2014-08-02T11:25:00,4,20881004,201237
OK,124,38,909,124,2014-08-02T11:30:00,3,20881453,201237
OK,124,38,909,124,2014-08-02T11:35:00,2,20881902,201237
OK,115,41,909,115,2014-08-02T11:40:00,2,20882351,201237
OK,112,42,909,112,2014-08-02T11:45:00,5,20882800,201237
OK,112,42,909,112,2014-08-02T11:50:00,5,20883249,201237
OK,136,35,909,136,2014-08-02T11:55:00,1,20883698,201237
OK,136,35,909,136,2014-08-02T12:00:00,0,20884147,201237
OK,136,35,909,136,2014-08-02T12:05:00,0,20884596,201237
OK,123,39,909,123,2014-08-02T12:10:00,4,20885045,201237
OK,104,46,909,104,2014-08-02T12:15:00,3,20885494,201237
OK,97,49,909,97,2014-08-02T12:20:00,1,20885943,201237
OK,98,48,909,98,2014-08-02T12:25:00,4,20886392,201237
OK,103,46,909,103,2014-08-02T12:30:00,2,20886841,201237
OK,113,42,909,113,2014-08-02T12:35:00,3,20887290,201237
OK,113,42,909,113,2014-08-02T12:40:00,3,20887739,201237
OK,110,43,909,110,2014-08-02T12:45:00,2,20888188,201237
OK,110,43,909,110,2014-08-02T12:50:00,4,20888637,201237
OK,100,47,909,100,2014-08-02T12:55:00,3,20889086,201237
OK,100,47,909,100,2014-08-02T13:00:00,3,20889535,201237
OK,89,53,909,89,2014-08-02T13:05:00,3,20889984,201237
OK,92,52,909,92,2014-08-02T13:10:00,3,20890433,201237
OK,122,39,909,122,2014-08-02T13:15:00,2,20890882,201237
OK,117,41,909,117,2014-08-02T13:20:00,1,20891331,201237
OK,117,41,909,117,2014-08-02T13:25:00,0,20891780,201237
OK,117,41,909,117,2014-08-02T13:30:00,0,20892229,201237
OK,108,44,909,108,2014-08-02T13:35:00,1,20892678,201237
OK,113,42,909,113,2014-08-02T13:40:00,2,20893127,201237
OK,119,40,909,119,2014-08-02T13:45:00,1,20893576,201237
OK,119,40,909,119,2014-08-02T13:50:00,0,20894025,201237
OK,119,40,909,119,2014-08-02T13:55:00,1,20894474,201237
OK,116,41,909,116,2014-08-02T14:00:00,2,20894923,201237
OK,139,34,909,139,2014-08-02T14:05:00,3,20895372,201237
OK,137,35,909,137,2014-08-02T14:10:00,2,20895821,201237
OK,116,41,909,116,2014-08-02T14:15:00,1,20896270,201237
OK,79,60,909,79,2014-08-02T14:20:00,1,20896719,201237
OK,79,60,909,79,2014-08-02T14:25:00,1,20897168,201237
OK,79,60,909,79,2014-08-02T14:30:00,0,20897617,201237
OK,79,60,909,79,2014-08-02T14:35:00,0,20898066,201237
OK,127,37,909,127,2014-08-02T14:40:00,1,20898515,201237
OK,127,37,909,127,2014-08-02T14:45:00,1,20898964,201237
OK,103,46,909,103,2014-08-02T14:50:00,2,20899413,201237
OK,103,46,909,103,2014-08-02T14:55:00,2,20899862,201237
OK,127,37,909,127,2014-08-02T15:00:00,3,20900311,201237
OK,127,37,909,127,2014-08-02T15:05:00,3,20900760,201237
OK,159,30,909,159,2014-08-02T15:10:00,1,20901209,201237
OK,159,30,909,159,2014-08-02T15:15:00,1,20901658,201237
OK,122,39,909,122,2014-08-02T15:20:00,1,20902107,201237
OK,128,37,909,128,2014-08-02T15:25:00,2,20902556,201237
OK,109,44,909,109,2014-08-02T15:30:00,3,20903005,201237
OK,112,42,909,112,2014-08-02T15:35:00,4,20903454,201237
OK,117,41,909,117,2014-08-02T15:40:00,3,20903903,201237
OK,119,40,909,119,2014-08-02T15:45:00,2,20904352,201237
OK,119,40,909,119,2014-08-02T15:50:00,2,20904801,201237
OK,94,51,909,94,2014-08-02T15:55:00,0,20905250,201237
OK,90,53,909,90,2014-08-02T16:00:00,2,20905699,201237
OK,90,53,909,90,2014-08-02T16:05:00,2,20906148,201237
OK,136,35,909,136,2014-08-02T16:10:00,2,20906597,201237
OK,100,47,909,100,2014-08-02T16:15:00,1,20907046,201237
OK,146,32,909,146,2014-08-02T16:20:00,2,20907495,201237
OK,140,34,909,140,2014-08-02T16:25:00,3,20907944,201237
OK,89,53,909,89,2014-08-02T16:30:00,1,20908393,201237
OK,113,42,909,113,2014-08-02T16:35:00,1,20908842,201237
OK,113,42,909,113,2014-08-02T16:40:00,1,20909291,201237
OK,113,42,909,113,2014-08-02T16:45:00,0,20909740,201237
OK,101,47,909,101,2014-08-02T16:50:00,2,20910189,201237
OK,102,47,909,102,2014-08-02T16:55:00,2,20910638,201237
OK,104,46,909,104,2014-08-02T17:00:00,0,20911087,201237
OK,103,46,909,103,2014-08-02T17:05:00,1,20911536,201237
OK,138,34,909,138,2014-08-02T17:10:00,2,20911985,201237
OK,138,34,909,138,2014-08-02T17:15:00,2,20912434,201237
OK,156,30,909,156,2014-08-02T17:20:00,2,20912883,201237
OK,156,30,909,156,2014-08-02T17:25:00,0,20913332,201237
OK,113,42,909,113,2014-08-02T17:30:00,1,20913781,201237
OK,113,42,909,113,2014-08-02T17:35:00,1,20914230,201237
OK,113,42,909,113,2014-08-02T17:40:00,0,20914679,201237
OK,113,42,909,113,2014-08-02T17:45:00,0,20915128,201237
OK,91,52,909,91,2014-08-02T17:50:00,1,20915577,201237
OK,91,52,909,91,2014-08-02T17:55:00,0,20916026,201237
OK,91,52,909,91,2014-08-02T18:00:00,0,20916475,201237
OK,146,32,909,146,2014-08-02T18:05:00,1,20916924,201237
OK,134,35,909,134,2014-08-02T18:10:00,4,20917373,201237
OK,121,39,909,121,2014-08-02T18:15:00,2,20917822,201237
OK,117,41,909,117,2014-08-02T18:20:00,1,20918271,201237
OK,117,41,909,117,2014-08-02T18:25:00,0,20918720,201237
OK,117,41,909,117,2014-08-02T18:30:00,0,20919169,201237
OK,117,41,909,117,2014-08-02T18:35:00,0,20919618,201237
OK,117,41,909,117,2014-08-02T18:40:00,0,20920067,201237
OK,117,41,909,117,2014-08-02T18:45:00,0,20920516,201237
OK,112,42,909,112,2014-08-02T18:50:00,1,20920965,201237
OK,73,65,909,73,2014-08-02T18:55:00,3,20921414,201237
OK,73,65,909,73,2014-08-02T19:00:00,0,20921863,201237
OK,73,65,909,73,2014-08-02T19:05:00,0,20922312,201237
OK,73,65,909,73,2014-08-02T19:10:00,0,20922761,201237
OK,73,65,909,73,2014-08-02T19:15:00,0,20923210,201237
OK,73,65,909,73,2014-08-02T19:20:00,0,20923659,201237
OK,73,65,909,73,2014-08-02T19:25:00,0,20924108,201237
OK,73,65,909,73,2014-08-02T19:30:00,0,20924557,201237
OK,73,65,909,73,2014-08-02T19:35:00,0,20925006,201237
OK,73,65,909,73,2014-08-02T19:40:00,0,20925455,201237
OK,93,51,909,93,2014-08-02T19:45:00,1,20925904,201237
OK,93,51,909,93,2014-08-02T19:50:00,1,20926353,201237
OK,93,51,909,93,2014-08-02T19:55:00,0,20926802,201237
OK,118,40,909,118,2014-08-02T20:00:00,1,20927251,201237
OK,116,41,909,116,2014-08-02T20:05:00,2,20927700,201237
OK,98,48,909,98,2014-08-02T20:10:00,2,20928149,201237
OK,88,54,909,88,2014-08-02T20:15:00,2,20928598,201237
OK,112,42,909,112,2014-08-02T20:20:00,1,20929047,201237
OK,143,33,909,143,2014-08-02T20:25:00,2,20929496,201237
OK,174,27,909,174,2014-08-02T20:30:00,0,20929945,201237
OK,174,27,909,174,2014-08-02T20:35:00,0,20930394,201237
OK,174,27,909,174,2014-08-02T20:40:00,0,20930843,201237
OK,94,51,909,94,2014-08-02T20:45:00,2,20931292,201237
OK,91,52,909,91,2014-08-02T20:50:00,1,20931741,201237
OK,121,39,909,121,2014-08-02T20:55:00,3,20932190,201237
OK,99,48,909,99,2014-08-02T21:00:00,3,20932639,201237
OK,105,45,909,105,2014-08-02T21:05:00,3,20933088,201237
OK,153,31,909,153,2014-08-02T21:10:00,1,20933537,201237
OK,104,46,909,104,2014-08-02T21:15:00,1,20933986,201237
OK,104,46,909,104,2014-08-02T21:20:00,0,20934435,201237
OK,104,46,909,104,2014-08-02T21:25:00,0,20934884,201237
OK,104,46,909,104,2014-08-02T21:30:00,0,20935333,201237
OK,104,46,909,104,2014-08-02T21:35:00,0,20935782,201237
OK,104,46,909,104,2014-08-02T21:40:00,0,20936231,201237
OK,108,44,909,108,2014-08-02T21:45:00,1,20936680,201237
OK,108,44,909,108,2014-08-02T21:50:00,1,20937129,201237
OK,108,44,909,108,2014-08-02T21:55:00,0,20937578,201237
OK,108,44,909,108,2014-08-02T22:00:00,0,20938027,201237
OK,108,44,909,108,2014-08-02T22:05:00,0,20938476,201237
OK,86,55,909,86,2014-08-02T22:10:00,1,20938925,201237
OK,100,47,909,100,2014-08-02T22:15:00,2,20939374,201237
OK,115,41,909,115,2014-08-02T22:20:00,0,20939823,201237
OK,115,41,909,115,2014-08-02T22:25:00,0,20940272,201237
OK,115,41,909,115,2014-08-02T22:30:00,0,20940721,201237
OK,115,41,909,115,2014-08-02T22:35:00,0,20941170,201237
OK,115,41,909,115,2014-08-02T22:40:00,0,20941619,201237
OK,115,41,909,115,2014-08-02T22:45:00,0,20942068,201237
OK,115,41,909,115,2014-08-02T22:50:00,0,20942517,201237
OK,115,41,909,115,2014-08-02T22:55:00,0,20942966,201237
OK,115,41,909,115,2014-08-02T23:00:00,0,20943415,201237
OK,115,41,909,115,2014-08-02T23:10:00,0,20943864,201237
OK,115,41,909,115,2014-08-02T23:15:00,0,20944313,201237
OK,115,41,909,115,2014-08-02T23:20:00,0,20944762,201237
OK,115,41,909,115,2014-08-02T23:25:00,0,20945211,201237
OK,115,41,909,115,2014-08-02T23:30:00,0,20945660,201237
OK,115,41,909,115,2014-08-02T23:35:00,0,20946109,201237
OK,115,41,909,115,2014-08-02T23:40:00,0,20946558,201237
OK,115,41,909,115,2014-08-02T23:45:00,0,20947007,201237
OK,115,41,909,115,2014-08-02T23:50:00,0,20947456,201237
OK,115,41,909,115,2014-08-02T23:55:00,0,20947905,201237
OK,115,41,909,115,2014-08-03T00:00:00,0,20948354,201237
OK,86,55,909,86,2014-08-03T00:05:00,0,20948803,201237
OK,86,55,909,86,2014-08-03T00:10:00,0,20949251,201237
OK,86,55,909,86,2014-08-03T00:15:00,0,20949700,201237
OK,86,55,909,86,2014-08-03T00:20:00,0,20950149,201237
OK,86,55,909,86,2014-08-03T00:25:00,0,20950598,201237
OK,86,55,909,86,2014-08-03T00:30:00,0,20951047,201237
OK,86,55,909,86,2014-08-03T00:35:00,0,20951496,201237
OK,95,50,909,95,2014-08-03T00:40:00,1,20951945,201237
OK,95,50,909,95,2014-08-03T00:45:00,0,20952394,201237
OK,95,50,909,95,2014-08-03T00:50:00,0,20952843,201237
OK,95,50,909,95,2014-08-03T00:55:00,0,20953292,201237
OK,95,50,909,95,2014-08-03T01:00:00,0,20953741,201237
OK,95,50,909,95,2014-08-03T01:05:00,0,20954190,201237